Погода в Китабе

Узбекистан     39°07′06″N   66°52′29″E
темп.,
°C
ветер,
м/с
пор.,
м/с
влажн.,
%
обл.,
%
осадки,
мм/ч
давл.,
гПа
погр.,
м
2 июля, сб
сб223:00+26всв46210 0.0 100378
02:00+26всв33220 0.0 100231
05:00+25св22210 0.0 100216
08:00+32св34150 0.0 1002370
11:00+39с4380 0.0 10001344
14:00+42ссв5360 0.0 9982371
17:00+40ссв6580 0.0 9971527
20:00+32всв45140 0.0 99877
3 июля, вс
вс323:00+28всв48180 0.0 998113
02:00+28св34190 0.0 99745
05:00+27всв35200 0.0 99758
08:00+36св45130 0.0 996324
11:00+42с3290 0.0 9951531
14:00+46ссз5370 0.0 9933708
17:00+44ссв6580 0.0 9921863
20:00+34всв33140 0.0 99431
4 июля, пн
пн423:00+30всв23190 0.0 99526
02:00+29ю12200 0.0 99613
05:00+26ююв12220 0.0 99920
08:00+32зюз34160 0.0 1001511
11:00+36зюз65140 0.0 10021459
14:00+39зсз75120 0.0 10012528
17:00+37зсз75150 0.0 10022450
20:00+31сз711200 0.0 1003396
5 июля, вт
вт523:00+26зюз25200 0.0 1005111
02:00+23ююз35190 0.0 1006106
05:00+21ююз22210 0.0 100831
08:00+26юз12170 0.0 1009527
11:00+31з33130 0.0 10081445
14:00+34зсз64120 0.0 10062398
17:00+34зсз64150 0.0 10052238
20:00+28зсз48180 0.0 1006158
6 июля, ср
ср623:00+24ю34220 0.0 100747
02:00+22юв11250 0.0 100711
05:00+21св11300 0.0 100811
08:00+26з11230 0.0 1009365
11:00+32з43160 0.0 10081586
14:00+35зсз65120 0.0 10072651
17:00+34зсз65100 0.0 10072701
20:00+27сз46170 0.0 100991